^^
TXWeather Station Historical Data
Daily Summary for July 07, 2022 Units:  Both    English   Metric
Daily Weekly Monthly Yearly Custom
  High: Low: Average:
Temperature: 103.0 °F /  39.4 °C 78.0 °F /  25.6 °C 88.1 °F /  31.2 °C
Dew Point: 80.0 °F /  26.7 °C 73.0 °F /  22.8 °C 75.8 °F /  24.3 °C
Humidity: 88% 43% 69%
Wind Speed: 16mph /  25.7km/h - 6.3mph /  10.1km/h
Wind Gust: 18mph /  29km/h - -
Wind- - SSE
Pressure: 30.1 in /  1019.2 hPa 30.0 in /  1015.8 hPa -
Precipitation: 0.000 in /  0 mm    
Historical Graphs
 
 
Tabular Data for July 07, 2022
Time Temperature Dew Point Pressure Wind Wind Speed Wind Gust Humidity Rainfall Rate (Hourly) solar
00:04 84.0 °F /  28.9 °C 75.0 °F /  23.9 °C 30.0in /  1015.8hPa SSE 6mph /  9.7km/h 6mph /  9.7km/h 76% 0.000in /  0mm 0.00 W/m2
00:09 84.0 °F /  28.9 °C 75.0 °F /  23.9 °C 30.0in /  1015.8hPa South 4mph /  6.4km/h 6mph /  9.7km/h 76% 0.000in /  0mm 0.00 W/m2
00:14 83.0 °F /  28.3 °C 75.0 °F /  23.9 °C 30.0in /  1015.8hPa SSE 5mph /  8km/h 6mph /  9.7km/h 76% 0.000in /  0mm 0.00 W/m2
00:19 83.0 °F /  28.3 °C 75.0 °F /  23.9 °C 30.0in /  1015.8hPa SSE 4mph /  6.4km/h 6mph /  9.7km/h 77% 0.000in /  0mm 0.00 W/m2
00:24 83.0 °F /  28.3 °C 75.0 °F /  23.9 °C 30.0in /  1015.8hPa South 5mph /  8km/h 5mph /  8km/h 77% 0.000in /  0mm 0.00 W/m2
00:29 83.0 °F /  28.3 °C 75.0 °F /  23.9 °C 30.0in /  1015.8hPa South 4mph /  6.4km/h 4mph /  6.4km/h 77% 0.000in /  0mm 0.00 W/m2
00:34 83.0 °F /  28.3 °C 75.0 °F /  23.9 °C 30.0in /  1015.8hPa South 4mph /  6.4km/h 5mph /  8km/h 77% 0.000in /  0mm 0.00 W/m2
00:39 83.0 °F /  28.3 °C 75.0 °F /  23.9 °C 30.0in /  1015.8hPa South 4mph /  6.4km/h 5mph /  8km/h 77% 0.000in /  0mm 0.00 W/m2
00:44 83.0 °F /  28.3 °C 75.0 °F /  23.9 °C 30.0in /  1015.8hPa SSE 2mph /  3.2km/h 5mph /  8km/h 77% 0.000in /  0mm 0.00 W/m2
00:49 83.0 °F /  28.3 °C 75.0 °F /  23.9 °C 30.0in /  1015.8hPa South 3mph /  4.8km/h 4mph /  6.4km/h 78% 0.000in /  0mm 0.00 W/m2
00:54 83.0 °F /  28.3 °C 75.0 °F /  23.9 °C 30.0in /  1015.8hPa South 5mph /  8km/h 5mph /  8km/h 78% 0.000in /  0mm 0.00 W/m2
00:59 83.0 °F /  28.3 °C 75.0 °F /  23.9 °C 30.0in /  1015.8hPa SSE 4mph /  6.4km/h 5mph /  8km/h 78% 0.000in /  0mm 0.00 W/m2
01:04 83.0 °F /  28.3 °C 75.0 °F /  23.9 °C 30.0in /  1015.8hPa SSE 4mph /  6.4km/h 5mph /  8km/h 78% 0.000in /  0mm 0.00 W/m2
01:09 82.0 °F /  27.8 °C 75.0 °F /  23.9 °C 30.0in /  1015.8hPa South 2mph /  3.2km/h 5mph /  8km/h 78% 0.000in /  0mm 0.00 W/m2
01:14 82.0 °F /  27.8 °C 75.0 °F /  23.9 °C 30.0in /  1015.8hPa South 4mph /  6.4km/h 5mph /  8km/h 78% 0.000in /  0mm 0.00 W/m2
01:19 82.0 °F /  27.8 °C 75.0 °F /  23.9 °C 30.0in /  1015.8hPa South 3mph /  4.8km/h 4mph /  6.4km/h 79% 0.000in /  0mm 0.00 W/m2
01:24 82.0 °F /  27.8 °C 75.0 °F /  23.9 °C 30.0in /  1015.8hPa South 3mph /  4.8km/h 3mph /  4.8km/h 79% 0.000in /  0mm 0.00 W/m2
01:29 82.0 °F /  27.8 °C 75.0 °F /  23.9 °C 30.0in /  1015.8hPa South 3mph /  4.8km/h 3mph /  4.8km/h 79% 0.000in /  0mm 0.00 W/m2
01:34 82.0 °F /  27.8 °C 75.0 °F /  23.9 °C 30.0in /  1015.8hPa South 3mph /  4.8km/h 3mph /  4.8km/h 79% 0.000in /  0mm 0.00 W/m2
01:39 82.0 °F /  27.8 °C 75.0 °F /  23.9 °C 30.0in /  1015.8hPa South 3mph /  4.8km/h 3mph /  4.8km/h 79% 0.000in /  0mm 0.00 W/m2
01:44 82.0 °F /  27.8 °C 75.0 °F /  23.9 °C 30.0in /  1015.8hPa South 3mph /  4.8km/h 3mph /  4.8km/h 79% 0.000in /  0mm 0.00 W/m2
01:49 82.0 °F /  27.8 °C 75.0 °F /  23.9 °C 30.0in /  1015.8hPa South 2mph /  3.2km/h 3mph /  4.8km/h 80% 0.000in /  0mm 0.00 W/m2
01:54 82.0 °F /  27.8 °C 75.0 °F /  23.9 °C 30.0in /  1015.8hPa South 2mph /  3.2km/h 3mph /  4.8km/h 80% 0.000in /  0mm 0.00 W/m2
01:59 82.0 °F /  27.8 °C 75.0 °F /  23.9 °C 30.0in /  1015.8hPa South 3mph /  4.8km/h 3mph /  4.8km/h 80% 0.000in /  0mm 0.00 W/m2
02:04 82.0 °F /  27.8 °C 75.0 °F /  23.9 °C 30.0in /  1015.8hPa South 3mph /  4.8km/h 4mph /  6.4km/h 80% 0.000in /  0mm 0.00 W/m2
02:09 82.0 °F /  27.8 °C 75.0 °F /  23.9 °C 30.0in /  1015.8hPa South 4mph /  6.4km/h 4mph /  6.4km/h 80% 0.000in /  0mm 0.00 W/m2
02:14 82.0 °F /  27.8 °C 75.0 °F /  23.9 °C 30.0in /  1015.8hPa South 4mph /  6.4km/h 4mph /  6.4km/h 80% 0.000in /  0mm 0.00 W/m2
02:19 82.0 °F /  27.8 °C 75.0 °F /  23.9 °C 30.0in /  1015.8hPa South 2mph /  3.2km/h 4mph /  6.4km/h 80% 0.000in /  0mm 0.00 W/m2
02:24 82.0 °F /  27.8 °C 75.0 °F /  23.9 °C 30.0in /  1015.8hPa South 2mph /  3.2km/h 3mph /  4.8km/h 80% 0.000in /  0mm 0.00 W/m2
02:29 81.0 °F /  27.2 °C 75.0 °F /  23.9 °C 30.0in /  1015.8hPa South 2mph /  3.2km/h 3mph /  4.8km/h 80% 0.000in /  0mm 0.00 W/m2
02:34 81.0 °F /  27.2 °C 75.0 °F /  23.9 °C 30.0in /  1015.8hPa South 2mph /  3.2km/h 3mph /  4.8km/h 81% 0.000in /  0mm 0.00 W/m2
02:39 81.0 °F /  27.2 °C 75.0 °F /  23.9 °C 30.0in /  1015.8hPa South 2mph /  3.2km/h 2mph /  3.2km/h 81% 0.000in /  0mm 0.00 W/m2
02:44 81.0 °F /  27.2 °C 75.0 °F /  23.9 °C 30.0in /  1015.8hPa South 1mph /  1.6km/h 2mph /  3.2km/h 81% 0.000in /  0mm 0.00 W/m2
02:49 81.0 °F /  27.2 °C 75.0 °F /  23.9 °C 30.0in /  1015.8hPa South 2mph /  3.2km/h 2mph /  3.2km/h 81% 0.000in /  0mm 0.00 W/m2
02:54 81.0 °F /  27.2 °C 75.0 °F /  23.9 °C 30.0in /  1015.8hPa South 2mph /  3.2km/h 2mph /  3.2km/h 81% 0.000in /  0mm 0.00 W/m2
02:59 81.0 °F /  27.2 °C 75.0 °F /  23.9 °C 30.0in /  1015.8hPa South 2mph /  3.2km/h 2mph /  3.2km/h 81% 0.000in /  0mm 0.00 W/m2
03:04 81.0 °F /  27.2 °C 75.0 °F /  23.9 °C 30.0in /  1015.8hPa South 2mph /  3.2km/h 3mph /  4.8km/h 81% 0.000in /  0mm 0.00 W/m2
03:09 81.0 °F /  27.2 °C 75.0 °F /  23.9 °C 30.0in /  1015.8hPa South 1mph /  1.6km/h 2mph /  3.2km/h 81% 0.000in /  0mm 0.00 W/m2
03:14 81.0 °F /  27.2 °C 75.0 °F /  23.9 °C 30.0in /  1015.8hPa South 2mph /  3.2km/h 3mph /  4.8km/h 82% 0.000in /  0mm 0.00 W/m2
03:19 81.0 °F /  27.2 °C 75.0 °F /  23.9 °C 30.0in /  1015.8hPa South 3mph /  4.8km/h 3mph /  4.8km/h 82% 0.000in /  0mm 0.00 W/m2
03:24 81.0 °F /  27.2 °C 75.0 °F /  23.9 °C 30.0in /  1015.8hPa South 2mph /  3.2km/h 3mph /  4.8km/h 82% 0.000in /  0mm 0.00 W/m2
03:29 81.0 °F /  27.2 °C 75.0 °F /  23.9 °C 30.0in /  1015.8hPa South 3mph /  4.8km/h 3mph /  4.8km/h 82% 0.000in /  0mm 0.00 W/m2
03:34 80.0 °F /  26.7 °C 75.0 °F /  23.9 °C 30.0in /  1015.8hPa South 4mph /  6.4km/h 4mph /  6.4km/h 83% 0.000in /  0mm 0.00 W/m2
03:39 80.0 °F /  26.7 °C 75.0 °F /  23.9 °C 30.0in /  1015.8hPa South 3mph /  4.8km/h 4mph /  6.4km/h 83% 0.000in /  0mm 0.00 W/m2
03:44 80.0 °F /  26.7 °C 75.0 °F /  23.9 °C 30.0in /  1015.8hPa South 3mph /  4.8km/h 3mph /  4.8km/h 83% 0.000in /  0mm 0.00 W/m2
03:49 80.0 °F /  26.7 °C 75.0 °F /  23.9 °C 30.0in /  1015.8hPa South 1mph /  1.6km/h 3mph /  4.8km/h 83% 0.000in /  0mm 0.00 W/m2
03:54 80.0 °F /  26.7 °C 75.0 °F /  23.9 °C 30.0in /  1015.8hPa South 2mph /  3.2km/h 2mph /  3.2km/h 83% 0.000in /  0mm 0.00 W/m2
03:59 80.0 °F /  26.7 °C 75.0 °F /  23.9 °C 30.0in /  1015.8hPa South 2mph /  3.2km/h 2mph /  3.2km/h 83% 0.000in /  0mm 0.00 W/m2
04:04 80.0 °F /  26.7 °C 75.0 °F /  23.9 °C 30.0in /  1015.8hPa South 2mph /  3.2km/h 2mph /  3.2km/h 83% 0.000in /  0mm 0.00 W/m2
04:09 80.0 °F /  26.7 °C 75.0 °F /  23.9 °C 30.0in /  1015.8hPa South 4mph /  6.4km/h 4mph /  6.4km/h 83% 0.000in /  0mm 0.00 W/m2
04:14 80.0 °F /  26.7 °C 75.0 °F /  23.9 °C 30.0in /  1015.8hPa South 4mph /  6.4km/h 4mph /  6.4km/h 83% 0.000in /  0mm 0.00 W/m2
04:19 80.0 °F /  26.7 °C 75.0 °F /  23.9 °C 30.0in /  1015.8hPa South 4mph /  6.4km/h 4mph /  6.4km/h 84% 0.000in /  0mm 0.00 W/m2
04:24 80.0 °F /  26.7 °C 75.0 °F /  23.9 °C 30.0in /  1015.8hPa SSE 4mph /  6.4km/h 4mph /  6.4km/h 84% 0.000in /  0mm 0.00 W/m2
04:29 80.0 °F /  26.7 °C 75.0 °F /  23.9 °C 30.0in /  1015.8hPa SSE 3mph /  4.8km/h 4mph /  6.4km/h 84% 0.000in /  0mm 0.00 W/m2
04:34 80.0 °F /  26.7 °C 75.0 °F /  23.9 °C 30.0in /  1015.8hPa SSE 3mph /  4.8km/h 4mph /  6.4km/h 84% 0.000in /  0mm 0.00 W/m2
04:39 80.0 °F /  26.7 °C 75.0 °F /  23.9 °C 30.0in /  1015.8hPa SSE 3mph /  4.8km/h 4mph /  6.4km/h 84% 0.000in /  0mm 0.00 W/m2
04:44 80.0 °F /  26.7 °C 75.0 °F /  23.9 °C 30.0in /  1015.8hPa SSE 4mph /  6.4km/h 4mph /  6.4km/h 84% 0.000in /  0mm 0.00 W/m2
04:49 80.0 °F /  26.7 °C 75.0 °F /  23.9 °C 30.0in /  1015.8hPa SSE 3mph /  4.8km/h 4mph /  6.4km/h 84% 0.000in /  0mm 0.00 W/m2
04:54 80.0 °F /  26.7 °C 75.0 °F /  23.9 °C 30.0in /  1015.8hPa SSE 4mph /  6.4km/h 4mph /  6.4km/h 84% 0.000in /  0mm 0.00 W/m2
04:59 80.0 °F /  26.7 °C 75.0 °F /  23.9 °C 30.0in /  1015.8hPa SSE 3mph /  4.8km/h 3mph /  4.8km/h 84% 0.000in /  0mm 0.00 W/m2
05:04 80.0 °F /  26.7 °C 75.0 °F /  23.9 °C 30.0in /  1015.8hPa SSE 1mph /  1.6km/h 3mph /  4.8km/h 84% 0.000in /  0mm 0.00 W/m2
05:09 80.0 °F /  26.7 °C 75.0 °F /  23.9 °C 30.0in /  1015.8hPa SSE 2mph /  3.2km/h 2mph /  3.2km/h 84% 0.000in /  0mm 0.00 W/m2
05:14 80.0 °F /  26.7 °C 74.0 °F /  23.3 °C 30.0in /  1015.8hPa SSE 2mph /  3.2km/h 2mph /  3.2km/h 84% 0.000in /  0mm 0.00 W/m2
05:19 80.0 °F /  26.7 °C 74.0 °F /  23.3 °C 30.0in /  1015.8hPa SSE 2mph /  3.2km/h 2mph /  3.2km/h 84% 0.000in /  0mm 0.00 W/m2
05:24 80.0 °F /  26.7 °C 74.0 °F /  23.3 °C 30.0in /  1015.8hPa SSE 1mph /  1.6km/h 1mph /  1.6km/h 84% 0.000in /  0mm 0.00 W/m2
05:29 80.0 °F /  26.7 °C 74.0 °F /  23.3 °C 30.0in /  1015.8hPa SSE 1mph /  1.6km/h 1mph /  1.6km/h 84% 0.000in /  0mm 0.00 W/m2
05:34 79.0 °F /  26.1 °C 74.0 °F /  23.3 °C 30.0in /  1015.8hPa SSE 1mph /  1.6km/h 1mph /  1.6km/h 84% 0.000in /  0mm 0.00 W/m2
05:39 79.0 °F /  26.1 °C 74.0 °F /  23.3 °C 30.0in /  1015.8hPa SSE 1mph /  1.6km/h 1mph /  1.6km/h 84% 0.000in /  0mm 0.00 W/m2
05:44 79.0 °F /  26.1 °C 74.0 °F /  23.3 °C 30.0in /  1015.8hPa SSE 1mph /  1.6km/h 1mph /  1.6km/h 84% 0.000in /  0mm 0.00 W/m2
05:49 79.0 °F /  26.1 °C 74.0 °F /  23.3 °C 30.0in /  1015.8hPa Calm   1mph /  1.6km/h 84% 0.000in /  0mm 0.00 W/m2
05:54 79.0 °F /  26.1 °C 74.0 °F /  23.3 °C 30.0in /  1015.8hPa Calm   1mph /  1.6km/h 84% 0.000in /  0mm 0.00 W/m2
05:59 79.0 °F /  26.1 °C 74.0 °F /  23.3 °C 30.0in /  1015.8hPa Calm     84% 0.000in /  0mm 0.00 W/m2
06:04 79.0 °F /  26.1 °C 74.0 °F /  23.3 °C 30.0in /  1015.8hPa Calm     84% 0.000in /  0mm 0.00 W/m2
06:09 79.0 °F /  26.1 °C 73.0 °F /  22.8 °C 30.0in /  1015.8hPa Calm     84% 0.000in /  0mm 0.00 W/m2
06:14 78.0 °F /  25.6 °C 73.0 °F /  22.8 °C 30.0in /  1015.8hPa Calm     84% 0.000in /  0mm 0.00 W/m2
06:19 78.0 °F /  25.6 °C 73.0 °F /  22.8 °C 30.0in /  1015.8hPa Calm     85% 0.000in /  0mm 0.00 W/m2
06:24 78.0 °F /  25.6 °C 74.0 °F /  23.3 °C 30.0in /  1015.8hPa Calm     85% 0.000in /  0mm 0.00 W/m2
06:29 78.0 °F /  25.6 °C 74.0 °F /  23.3 °C 30.0in /  1015.8hPa SSE 2mph /  3.2km/h 2mph /  3.2km/h 85% 0.000in /  0mm 0.00 W/m2
06:34 78.0 °F /  25.6 °C 74.0 °F /  23.3 °C 30.0in /  1015.8hPa SSE 1mph /  1.6km/h 2mph /  3.2km/h 85% 0.000in /  0mm 0.00 W/m2
06:39 78.0 °F /  25.6 °C 74.0 °F /  23.3 °C 30.0in /  1015.8hPa Calm   1mph /  1.6km/h 85% 0.000in /  0mm 5.00 W/m2
06:44 78.0 °F /  25.6 °C 73.0 °F /  22.8 °C 30.0in /  1015.8hPa Calm     85% 0.000in /  0mm 7.00 W/m2
06:49 78.0 °F /  25.6 °C 73.0 °F /  22.8 °C 30.0in /  1015.8hPa SSE 1mph /  1.6km/h 2mph /  3.2km/h 85% 0.000in /  0mm 9.00 W/m2
06:54 78.0 °F /  25.6 °C 74.0 °F /  23.3 °C 30.0in /  1015.8hPa SSE 2mph /  3.2km/h 2mph /  3.2km/h 86% 0.000in /  0mm 11.00 W/m2
06:59 78.0 °F /  25.6 °C 74.0 °F /  23.3 °C 30.0in /  1015.8hPa SSE 1mph /  1.6km/h 2mph /  3.2km/h 86% 0.000in /  0mm 12.00 W/m2
07:04 78.0 °F /  25.6 °C 74.0 °F /  23.3 °C 30.0in /  1015.8hPa South 2mph /  3.2km/h 3mph /  4.8km/h 86% 0.000in /  0mm 14.00 W/m2
07:09 78.0 °F /  25.6 °C 74.0 °F /  23.3 °C 30.0in /  1015.8hPa South 2mph /  3.2km/h 3mph /  4.8km/h 87% 0.000in /  0mm 16.00 W/m2
07:14 79.0 °F /  26.1 °C 75.0 °F /  23.9 °C 30.0in /  1015.8hPa South 3mph /  4.8km/h 3mph /  4.8km/h 87% 0.000in /  0mm 18.00 W/m2
07:19 79.0 °F /  26.1 °C 75.0 °F /  23.9 °C 30.0in /  1015.8hPa South 2mph /  3.2km/h 3mph /  4.8km/h 87% 0.000in /  0mm 19.00 W/m2
07:24 79.0 °F /  26.1 °C 75.0 °F /  23.9 °C 30.0in /  1015.8hPa South 3mph /  4.8km/h 3mph /  4.8km/h 87% 0.000in /  0mm 37.00 W/m2
07:29 79.0 °F /  26.1 °C 75.0 °F /  23.9 °C 30.0in /  1015.8hPa South 4mph /  6.4km/h 5mph /  8km/h 87% 0.000in /  0mm 44.00 W/m2
07:34 79.0 °F /  26.1 °C 76.0 °F /  24.4 °C 30.0in /  1015.8hPa SSE 5mph /  8km/h 5mph /  8km/h 88% 0.000in /  0mm 58.00 W/m2
07:39 79.0 °F /  26.1 °C 76.0 °F /  24.4 °C 30.0in /  1015.8hPa SSE 5mph /  8km/h 5mph /  8km/h 88% 0.000in /  0mm 25.00 W/m2
07:44 80.0 °F /  26.7 °C 76.0 °F /  24.4 °C 30.0in /  1015.8hPa SSE 5mph /  8km/h 5mph /  8km/h 88% 0.000in /  0mm 26.00 W/m2
07:49 80.0 °F /  26.7 °C 76.0 °F /  24.4 °C 30.0in /  1015.8hPa South 4mph /  6.4km/h 5mph /  8km/h 88% 0.000in /  0mm 28.00 W/m2
07:54 80.0 °F /  26.7 °C 76.0 °F /  24.4 °C 30.0in /  1015.8hPa SSW 3mph /  4.8km/h 4mph /  6.4km/h 88% 0.000in /  0mm 30.00 W/m2
07:59 80.0 °F /  26.7 °C 76.0 °F /  24.4 °C 30.0in /  1015.8hPa South 4mph /  6.4km/h 5mph /  8km/h 88% 0.000in /  0mm 32.00 W/m2
08:04 81.0 °F /  27.2 °C 77.0 °F /  25 °C 30.0in /  1015.8hPa SSE 4mph /  6.4km/h 5mph /  8km/h 88% 0.000in /  0mm 47.00 W/m2
08:09 81.0 °F /  27.2 °C 77.0 °F /  25 °C 30.0in /  1015.8hPa SSE 5mph /  8km/h 5mph /  8km/h 87% 0.000in /  0mm 63.00 W/m2
08:14 81.0 °F /  27.2 °C 77.0 °F /  25 °C 30.1in /  1019.2hPa South 3mph /  4.8km/h 5mph /  8km/h 87% 0.000in /  0mm 107.00 W/m2
08:19 82.0 °F /  27.8 °C 77.0 °F /  25 °C 30.1in /  1019.2hPa SSW 8mph /  12.9km/h 11mph /  17.7km/h 87% 0.000in /  0mm 118.00 W/m2
08:24 82.0 °F /  27.8 °C 77.0 °F /  25 °C 30.1in /  1019.2hPa SSW 5mph /  8km/h 6mph /  9.7km/h 86% 0.000in /  0mm 105.00 W/m2
08:29 82.0 °F /  27.8 °C 77.0 °F /  25 °C 30.1in /  1019.2hPa SSW 9mph /  14.5km/h 9mph /  14.5km/h 85% 0.000in /  0mm 104.00 W/m2
08:34 82.0 °F /  27.8 °C 77.0 °F /  25 °C 30.1in /  1019.2hPa South 4mph /  6.4km/h 5mph /  8km/h 84% 0.000in /  0mm 104.00 W/m2
08:39 83.0 °F /  28.3 °C 77.0 °F /  25 °C 30.1in /  1019.2hPa South 5mph /  8km/h 6mph /  9.7km/h 84% 0.000in /  0mm 172.00 W/m2
08:44 83.0 °F /  28.3 °C 77.0 °F /  25 °C 30.1in /  1019.2hPa South 7mph /  11.3km/h 7mph /  11.3km/h 83% 0.000in /  0mm 214.00 W/m2
08:49 83.0 °F /  28.3 °C 77.0 °F /  25 °C 30.1in /  1019.2hPa South 7mph /  11.3km/h 7mph /  11.3km/h 82% 0.000in /  0mm 192.00 W/m2
08:54 84.0 °F /  28.9 °C 77.0 °F /  25 °C 30.1in /  1019.2hPa South 6mph /  9.7km/h 7mph /  11.3km/h 81% 0.000in /  0mm 218.00 W/m2
08:59 84.0 °F /  28.9 °C 77.0 °F /  25 °C 30.1in /  1019.2hPa South 8mph /  12.9km/h 8mph /  12.9km/h 80% 0.000in /  0mm 165.00 W/m2
09:04 84.0 °F /  28.9 °C 77.0 °F /  25 °C 30.1in /  1019.2hPa South 8mph /  12.9km/h 8mph /  12.9km/h 79% 0.000in /  0mm 86.00 W/m2
09:09 84.0 °F /  28.9 °C 77.0 °F /  25 °C 30.1in /  1019.2hPa South 8mph /  12.9km/h 8mph /  12.9km/h 78% 0.000in /  0mm 501.00 W/m2
09:14 85.0 °F /  29.4 °C 77.0 °F /  25 °C 30.1in /  1019.2hPa South 7mph /  11.3km/h 11mph /  17.7km/h 78% 0.000in /  0mm 501.00 W/m2
09:19 85.0 °F /  29.4 °C 77.0 °F /  25 °C 30.1in /  1019.2hPa South 10mph /  16.1km/h 10mph /  16.1km/h 76% 0.000in /  0mm 506.00 W/m2
09:24 86.0 °F /  30 °C 77.0 °F /  25 °C 30.1in /  1019.2hPa South 7mph /  11.3km/h 10mph /  16.1km/h 77% 0.000in /  0mm 582.00 W/m2
09:29 86.0 °F /  30 °C 78.0 °F /  25.6 °C 30.1in /  1019.2hPa South 11mph /  17.7km/h 11mph /  17.7km/h 77% 0.000in /  0mm 571.00 W/m2
09:34 87.0 °F /  30.6 °C 78.0 °F /  25.6 °C 30.1in /  1019.2hPa South 6mph /  9.7km/h 11mph /  17.7km/h 75% 0.000in /  0mm 538.00 W/m2
09:39 87.0 °F /  30.6 °C 77.0 °F /  25 °C 30.1in /  1019.2hPa SW 8mph /  12.9km/h 9mph /  14.5km/h 73% 0.000in /  0mm 531.00 W/m2
09:44 87.0 °F /  30.6 °C 77.0 °F /  25 °C 30.1in /  1019.2hPa SSW 6mph /  9.7km/h 9mph /  14.5km/h 72% 0.000in /  0mm 183.00 W/m2
09:49 87.0 °F /  30.6 °C 77.0 °F /  25 °C 30.1in /  1019.2hPa SSW 8mph /  12.9km/h 8mph /  12.9km/h 71% 0.000in /  0mm 218.00 W/m2
09:54 88.0 °F /  31.1 °C 76.0 °F /  24.4 °C 30.1in /  1019.2hPa SW 8mph /  12.9km/h 8mph /  12.9km/h 69% 0.000in /  0mm 563.00 W/m2
09:59 88.0 °F /  31.1 °C 76.0 °F /  24.4 °C 30.1in /  1019.2hPa SSW 8mph /  12.9km/h 9mph /  14.5km/h 69% 0.000in /  0mm 580.00 W/m2
10:04 88.0 °F /  31.1 °C 77.0 °F /  25 °C 30.1in /  1019.2hPa SSW 7mph /  11.3km/h 8mph /  12.9km/h 69% 0.000in /  0mm 603.00 W/m2
10:09 88.0 °F /  31.1 °C 77.0 °F /  25 °C 30.1in /  1019.2hPa SSW 5mph /  8km/h 7mph /  11.3km/h 69% 0.000in /  0mm 642.00 W/m2
10:14 89.0 °F /  31.7 °C 77.0 °F /  25 °C 30.1in /  1019.2hPa South 8mph /  12.9km/h 8mph /  12.9km/h 69% 0.000in /  0mm 642.00 W/m2
10:19 89.0 °F /  31.7 °C 77.0 °F /  25 °C 30.1in /  1019.2hPa South 11mph /  17.7km/h 12mph /  19.3km/h 67% 0.000in /  0mm 624.00 W/m2
10:24 90.0 °F /  32.2 °C 77.0 °F /  25 °C 30.1in /  1019.2hPa SSE 9mph /  14.5km/h 12mph /  19.3km/h 66% 0.000in /  0mm 684.00 W/m2
10:29 90.0 °F /  32.2 °C 77.0 °F /  25 °C 30.1in /  1019.2hPa South 9mph /  14.5km/h 12mph /  19.3km/h 65% 0.000in /  0mm 670.00 W/m2
10:34 91.0 °F /  32.8 °C 77.0 °F /  25 °C 30.1in /  1019.2hPa South 10mph /  16.1km/h 10mph /  16.1km/h 64% 0.000in /  0mm 700.00 W/m2
10:39 92.0 °F /  33.3 °C 76.0 °F /  24.4 °C 30.1in /  1019.2hPa SSE 10mph /  16.1km/h 13mph /  20.9km/h 61% 0.000in /  0mm 694.00 W/m2
10:44 93.0 °F /  33.9 °C 75.0 °F /  23.9 °C 30.1in /  1019.2hPa South 10mph /  16.1km/h 13mph /  20.9km/h 58% 0.000in /  0mm 701.00 W/m2
10:49 93.0 °F /  33.9 °C 75.0 °F /  23.9 °C 30.1in /  1019.2hPa SSE 16mph /  25.7km/h 16mph /  25.7km/h 57% 0.000in /  0mm 729.00 W/m2
10:54 93.0 °F /  33.9 °C 76.0 °F /  24.4 °C 30.1in /  1019.2hPa SSE 9mph /  14.5km/h 10mph /  16.1km/h 57% 0.000in /  0mm 763.00 W/m2
10:59 94.0 °F /  34.4 °C 76.0 °F /  24.4 °C 30.1in /  1019.2hPa South 10mph /  16.1km/h 11mph /  17.7km/h 56% 0.000in /  0mm 842.00 W/m2
11:04 94.0 °F /  34.4 °C 76.0 °F /  24.4 °C 30.1in /  1019.2hPa SSE 9mph /  14.5km/h 11mph /  17.7km/h 56% 0.000in /  0mm 900.00 W/m2
11:09 95.0 °F /  35 °C 75.0 °F /  23.9 °C 30.1in /  1019.2hPa South 9mph /  14.5km/h 9mph /  14.5km/h 54% 0.000in /  0mm 942.00 W/m2
11:14 95.0 °F /  35 °C 75.0 °F /  23.9 °C 30.1in /  1019.2hPa South 8mph /  12.9km/h 8mph /  12.9km/h 54% 0.000in /  0mm 933.00 W/m2
11:19 96.0 °F /  35.6 °C 76.0 °F /  24.4 °C 30.1in /  1019.2hPa South 7mph /  11.3km/h 7mph /  11.3km/h 53% 0.000in /  0mm 893.00 W/m2
11:24 96.0 °F /  35.6 °C 75.0 °F /  23.9 °C 30.1in /  1019.2hPa South 10mph /  16.1km/h 14mph /  22.5km/h 51% 0.000in /  0mm 939.00 W/m2
11:29 96.0 °F /  35.6 °C 75.0 °F /  23.9 °C 30.1in /  1019.2hPa South 8mph /  12.9km/h 8mph /  12.9km/h 51% 0.000in /  0mm 963.00 W/m2
11:34 96.0 °F /  35.6 °C 75.0 °F /  23.9 °C 30.1in /  1019.2hPa South 9mph /  14.5km/h 9mph /  14.5km/h 50% 0.000in /  0mm 958.00 W/m2
11:39 96.0 °F /  35.6 °C 75.0 °F /  23.9 °C 30.1in /  1019.2hPa SSW 6mph /  9.7km/h 8mph /  12.9km/h 51% 0.000in /  0mm 411.00 W/m2
11:44 95.0 °F /  35 °C 75.0 °F /  23.9 °C 30.1in /  1019.2hPa SSW 8mph /  12.9km/h 8mph /  12.9km/h 53% 0.000in /  0mm 995.00 W/m2
11:49 95.0 °F /  35 °C 75.0 °F /  23.9 °C 30.1in /  1019.2hPa South 5mph /  8km/h 5mph /  8km/h 53% 0.000in /  0mm 995.00 W/m2
11:54 95.0 °F /  35 °C 76.0 °F /  24.4 °C 30.1in /  1019.2hPa South 9mph /  14.5km/h 9mph /  14.5km/h 54% 0.000in /  0mm 956.00 W/m2
11:59 96.0 °F /  35.6 °C 77.0 °F /  25 °C 30.1in /  1019.2hPa SSE 6mph /  9.7km/h 8mph /  12.9km/h 54% 0.000in /  0mm 1046.00 W/m2
12:04 96.0 °F /  35.6 °C 77.0 °F /  25 °C 30.1in /  1019.2hPa South 8mph /  12.9km/h 9mph /  14.5km/h 54% 0.000in /  0mm 1046.00 W/m2
12:09 97.0 °F /  36.1 °C 77.0 °F /  25 °C 30.1in /  1019.2hPa SW 7mph /  11.3km/h 7mph /  11.3km/h 53% 0.000in /  0mm 1083.00 W/m2
12:14 97.0 °F /  36.1 °C 77.0 °F /  25 °C 30.0in /  1015.8hPa SW 8mph /  12.9km/h 8mph /  12.9km/h 53% 0.000in /  0mm 1083.00 W/m2
12:19 96.0 °F /  35.6 °C 77.0 °F /  25 °C 30.1in /  1019.2hPa WSW 8mph /  12.9km/h 9mph /  14.5km/h 54% 0.000in /  0mm 1085.00 W/m2
12:24 96.0 °F /  35.6 °C 77.0 °F /  25 °C 30.0in /  1015.8hPa SW 4mph /  6.4km/h 4mph /  6.4km/h 53% 0.000in /  0mm 1085.00 W/m2
12:29 96.0 °F /  35.6 °C 76.0 °F /  24.4 °C 30.0in /  1015.8hPa SW 8mph /  12.9km/h 8mph /  12.9km/h 52% 0.000in /  0mm 1076.00 W/m2
12:34 96.0 °F /  35.6 °C 77.0 °F /  25 °C 30.0in /  1015.8hPa SW 7mph /  11.3km/h 8mph /  12.9km/h 53% 0.000in /  0mm 1107.00 W/m2
12:39 96.0 °F /  35.6 °C 75.0 °F /  23.9 °C 30.0in /  1015.8hPa SW 5mph /  8km/h 5mph /  8km/h 51% 0.000in /  0mm 1100.00 W/m2
12:44 97.0 °F /  36.1 °C 76.0 °F /  24.4 °C 30.0in /  1015.8hPa SSE 7mph /  11.3km/h 7mph /  11.3km/h 51% 0.000in /  0mm 1065.00 W/m2
12:49 98.0 °F /  36.7 °C 76.0 °F /  24.4 °C 30.0in /  1015.8hPa South 5mph /  8km/h 7mph /  11.3km/h 51% 0.000in /  0mm 1062.00 W/m2
12:54 98.0 °F /  36.7 °C 77.0 °F /  25 °C 30.0in /  1015.8hPa SE 4mph /  6.4km/h 4mph /  6.4km/h 51% 0.000in /  0mm 1078.00 W/m2
12:59 99.0 °F /  37.2 °C 78.0 °F /  25.6 °C 30.0in /  1015.8hPa South 6mph /  9.7km/h 6mph /  9.7km/h 52% 0.000in /  0mm 1093.00 W/m2
13:04 100.0 °F /  37.8 °C 77.0 °F /  25 °C 30.0in /  1015.8hPa South 3mph /  4.8km/h 6mph /  9.7km/h 49% 0.000in /  0mm 1078.00 W/m2
13:09 100.0 °F /  37.8 °C 77.0 °F /  25 °C 30.0in /  1015.8hPa ESE 4mph /  6.4km/h 4mph /  6.4km/h 48% 0.000in /  0mm 1058.00 W/m2
13:14 101.0 °F /  38.3 °C 77.0 °F /  25 °C 30.0in /  1015.8hPa South 8mph /  12.9km/h 8mph /  12.9km/h 49% 0.000in /  0mm 1072.00 W/m2
13:19 101.0 °F /  38.3 °C 77.0 °F /  25 °C 30.0in /  1015.8hPa South 6mph /  9.7km/h 7mph /  11.3km/h 47% 0.000in /  0mm 1086.00 W/m2
13:24 101.0 °F /  38.3 °C 76.0 °F /  24.4 °C 30.0in /  1015.8hPa WSW 8mph /  12.9km/h 8mph /  12.9km/h 46% 0.000in /  0mm 1148.00 W/m2
13:29 100.0 °F /  37.8 °C 76.0 °F /  24.4 °C 30.0in /  1015.8hPa WNW 8mph /  12.9km/h 9mph /  14.5km/h 47% 0.000in /  0mm 1157.00 W/m2
13:34 100.0 °F /  37.8 °C 76.0 °F /  24.4 °C 30.0in /  1015.8hPa SE 8mph /  12.9km/h 8mph /  12.9km/h 46% 0.000in /  0mm 1069.00 W/m2
13:39 101.0 °F /  38.3 °C 76.0 °F /  24.4 °C 30.0in /  1015.8hPa SSE 9mph /  14.5km/h 10mph /  16.1km/h 47% 0.000in /  0mm 1067.00 W/m2
13:44 101.0 °F /  38.3 °C 78.0 °F /  25.6 °C 30.0in /  1015.8hPa South 6mph /  9.7km/h 10mph /  16.1km/h 48% 0.000in /  0mm 1065.00 W/m2
13:49 102.0 °F /  38.9 °C 78.0 °F /  25.6 °C 30.0in /  1015.8hPa SSW 4mph /  6.4km/h 6mph /  9.7km/h 47% 0.000in /  0mm 1035.00 W/m2
13:54 102.0 °F /  38.9 °C 77.0 °F /  25 °C 30.0in /  1015.8hPa SSE 5mph /  8km/h 5mph /  8km/h 46% 0.000in /  0mm 1011.00 W/m2
13:59 103.0 °F /  39.4 °C 78.0 °F /  25.6 °C 30.0in /  1015.8hPa South 4mph /  6.4km/h 5mph /  8km/h 46% 0.000in /  0mm 1051.00 W/m2
14:04 103.0 °F /  39.4 °C 77.0 °F /  25 °C 30.0in /  1015.8hPa SSE 11mph /  17.7km/h 11mph /  17.7km/h 45% 0.000in /  0mm 1071.00 W/m2
14:09 103.0 °F /  39.4 °C 77.0 °F /  25 °C 30.0in /  1015.8hPa SSE 7mph /  11.3km/h 11mph /  17.7km/h 44% 0.000in /  0mm 1055.00 W/m2
14:14 103.0 °F /  39.4 °C 78.0 °F /  25.6 °C 30.0in /  1015.8hPa SSE 8mph /  12.9km/h 8mph /  12.9km/h 45% 0.000in /  0mm 1104.00 W/m2
14:19 103.0 °F /  39.4 °C 77.0 °F /  25 °C 30.0in /  1015.8hPa SE 9mph /  14.5km/h 9mph /  14.5km/h 44% 0.000in /  0mm 1125.00 W/m2
14:24 103.0 °F /  39.4 °C 78.0 °F /  25.6 °C 30.0in /  1015.8hPa SSE 6mph /  9.7km/h 9mph /  14.5km/h 46% 0.000in /  0mm 1100.00 W/m2
14:29 103.0 °F /  39.4 °C 77.0 °F /  25 °C 30.0in /  1015.8hPa South 7mph /  11.3km/h 8mph /  12.9km/h 44% 0.000in /  0mm 1072.00 W/m2
14:34 103.0 °F /  39.4 °C 77.0 °F /  25 °C 30.0in /  1015.8hPa South 9mph /  14.5km/h 9mph /  14.5km/h 44% 0.000in /  0mm 1092.00 W/m2
14:39 103.0 °F /  39.4 °C 77.0 °F /  25 °C 30.0in /  1015.8hPa South 4mph /  6.4km/h 4mph /  6.4km/h 44% 0.000in /  0mm 232.00 W/m2
14:44 102.0 °F /  38.9 °C 76.0 °F /  24.4 °C 30.0in /  1015.8hPa SSE 5mph /  8km/h 5mph /  8km/h 44% 0.000in /  0mm 1039.00 W/m2
14:49 102.0 °F /  38.9 °C 75.0 °F /  23.9 °C 30.0in /  1015.8hPa ESE 11mph /  17.7km/h 12mph /  19.3km/h 43% 0.000in /  0mm 1088.00 W/m2
14:54 102.0 °F /  38.9 °C 76.0 °F /  24.4 °C 30.0in /  1015.8hPa SE 11mph /  17.7km/h 12mph /  19.3km/h 44% 0.000in /  0mm 251.00 W/m2
14:59 101.0 °F /  38.3 °C 76.0 °F /  24.4 °C 30.0in /  1015.8hPa SSE 8mph /  12.9km/h 8mph /  12.9km/h 45% 0.000in /  0mm 206.00 W/m2
15:04 101.0 °F /  38.3 °C 76.0 °F /  24.4 °C 30.0in /  1015.8hPa SE 9mph /  14.5km/h 9mph /  14.5km/h 46% 0.000in /  0mm 214.00 W/m2
15:09 100.0 °F /  37.8 °C 76.0 °F /  24.4 °C 30.0in /  1015.8hPa SSE 8mph /  12.9km/h 9mph /  14.5km/h 46% 0.000in /  0mm 214.00 W/m2
15:14 100.0 °F /  37.8 °C 76.0 °F /  24.4 °C 30.0in /  1015.8hPa SE 8mph /  12.9km/h 10mph /  16.1km/h 46% 0.000in /  0mm 186.00 W/m2
15:19 100.0 °F /  37.8 °C 76.0 °F /  24.4 °C 30.0in /  1015.8hPa SE 7mph /  11.3km/h 10mph /  16.1km/h 47% 0.000in /  0mm 188.00 W/m2
15:24 99.0 °F /  37.2 °C 76.0 °F /  24.4 °C 30.0in /  1015.8hPa SE 6mph /  9.7km/h 6mph /  9.7km/h 48% 0.000in /  0mm 190.00 W/m2
15:29 99.0 °F /  37.2 °C 77.0 °F /  25 °C 30.0in /  1015.8hPa SE 12mph /  19.3km/h 12mph /  19.3km/h 50% 0.000in /  0mm 151.00 W/m2
15:34 98.0 °F /  36.7 °C 77.0 °F /  25 °C 30.0in /  1015.8hPa SE 11mph /  17.7km/h 13mph /  20.9km/h 52% 0.000in /  0mm 134.00 W/m2
15:39 98.0 °F /  36.7 °C 77.0 °F /  25 °C 30.0in /  1015.8hPa SE 9mph /  14.5km/h 11mph /  17.7km/h 53% 0.000in /  0mm 204.00 W/m2
15:44 97.0 °F /  36.1 °C 77.0 °F /  25 °C 30.0in /  1015.8hPa SE 10mph /  16.1km/h 11mph /  17.7km/h 53% 0.000in /  0mm 204.00 W/m2
15:49 97.0 °F /  36.1 °C 77.0 °F /  25 °C 30.0in /  1015.8hPa SE 14mph /  22.5km/h 14mph /  22.5km/h 54% 0.000in /  0mm 316.00 W/m2
15:54 97.0 °F /  36.1 °C 77.0 °F /  25 °C 30.0in /  1015.8hPa SSE 11mph /  17.7km/h 11mph /  17.7km/h 54% 0.000in /  0mm 316.00 W/m2
15:59 97.0 °F /  36.1 °C 78.0 °F /  25.6 °C 30.0in /  1015.8hPa SSE 9mph /  14.5km/h 10mph /  16.1km/h 54% 0.000in /  0mm 408.00 W/m2
16:04 97.0 °F /  36.1 °C 77.0 °F /  25 °C 30.0in /  1015.8hPa SE 9mph /  14.5km/h 10mph /  16.1km/h 53% 0.000in /  0mm 874.00 W/m2
16:09 98.0 °F /  36.7 °C 77.0 °F /  25 °C 30.0in /  1015.8hPa SE 8mph /  12.9km/h 10mph /  16.1km/h 53% 0.000in /  0mm 874.00 W/m2
16:14 98.0 °F /  36.7 °C 77.0 °F /  25 °C 30.0in /  1015.8hPa SE 9mph /  14.5km/h 11mph /  17.7km/h 52% 0.000in /  0mm 830.00 W/m2
16:19 99.0 °F /  37.2 °C 78.0 °F /  25.6 °C 30.0in /  1015.8hPa South 11mph /  17.7km/h 13mph /  20.9km/h 51% 0.000in /  0mm 761.00 W/m2
16:24 99.0 °F /  37.2 °C 77.0 °F /  25 °C 30.0in /  1015.8hPa SSE 10mph /  16.1km/h 13mph /  20.9km/h 49% 0.000in /  0mm 740.00 W/m2
16:29 99.0 °F /  37.2 °C 77.0 °F /  25 °C 30.0in /  1015.8hPa SSE 2mph /  3.2km/h 6mph /  9.7km/h 50% 0.000in /  0mm 330.00 W/m2
16:34 99.0 °F /  37.2 °C 77.0 °F /  25 °C 30.0in /  1015.8hPa South 6mph /  9.7km/h 8mph /  12.9km/h 50% 0.000in /  0mm 712.00 W/m2
16:39 100.0 °F /  37.8 °C 77.0 °F /  25 °C 30.0in /  1015.8hPa South 6mph /  9.7km/h 7mph /  11.3km/h 49% 0.000in /  0mm 717.00 W/m2
16:44 100.0 °F /  37.8 °C 77.0 °F /  25 °C 30.0in /  1015.8hPa SSE 11mph /  17.7km/h 11mph /  17.7km/h 49% 0.000in /  0mm 705.00 W/m2
16:49 100.0 °F /  37.8 °C 77.0 °F /  25 °C 30.0in /  1015.8hPa SE 9mph /  14.5km/h 11mph /  17.7km/h 48% 0.000in /  0mm 719.00 W/m2
16:54 101.0 °F /  38.3 °C 77.0 °F /  25 °C 30.0in /  1015.8hPa SSE 8mph /  12.9km/h 8mph /  12.9km/h 48% 0.000in /  0mm 737.00 W/m2
16:59 101.0 °F /  38.3 °C 78.0 °F /  25.6 °C 30.0in /  1015.8hPa SSE 5mph /  8km/h 6mph /  9.7km/h 48% 0.000in /  0mm 737.00 W/m2
17:04 102.0 °F /  38.9 °C 78.0 °F /  25.6 °C 30.0in /  1015.8hPa SSE 7mph /  11.3km/h 7mph /  11.3km/h 48% 0.000in /  0mm 712.00 W/m2
17:09 102.0 °F /  38.9 °C 77.0 °F /  25 °C 30.0in /  1015.8hPa SSE 12mph /  19.3km/h 12mph /  19.3km/h 46% 0.000in /  0mm 633.00 W/m2
17:14 101.0 °F /  38.3 °C 77.0 °F /  25 °C 30.0in /  1015.8hPa SSE 12mph /  19.3km/h 14mph /  22.5km/h 48% 0.000in /  0mm 118.00 W/m2
17:19 100.0 °F /  37.8 °C 79.0 °F /  26.1 °C 30.0in /  1015.8hPa SSE 15mph /  24.1km/h 17mph /  27.4km/h 54% 0.000in /  0mm 121.00 W/m2
17:24 98.0 °F /  36.7 °C 80.0 °F /  26.7 °C 30.0in /  1015.8hPa SSE 13mph /  20.9km/h 17mph /  27.4km/h 58% 0.000in /  0mm 121.00 W/m2
17:29 96.0 °F /  35.6 °C 79.0 °F /  26.1 °C 30.0in /  1015.8hPa SE 15mph /  24.1km/h 15mph /  24.1km/h 60% 0.000in /  0mm 125.00 W/m2
17:34 95.0 °F /  35 °C 79.0 °F /  26.1 °C 30.0in /  1015.8hPa SE 13mph /  20.9km/h 14mph /  22.5km/h 61% 0.000in /  0mm 123.00 W/m2
17:39 94.0 °F /  34.4 °C 78.0 °F /  25.6 °C 30.0in /  1015.8hPa SE 14mph /  22.5km/h 18mph /  29km/h 61% 0.000in /  0mm 109.00 W/m2
17:44 93.0 °F /  33.9 °C 77.0 °F /  25 °C 30.0in /  1015.8hPa SE 15mph /  24.1km/h 18mph /  29km/h 62% 0.000in /  0mm 98.00 W/m2
17:49 92.0 °F /  33.3 °C 77.0 °F /  25 °C 30.0in /  1015.8hPa SE 11mph /  17.7km/h 15mph /  24.1km/h 63% 0.000in /  0mm 81.00 W/m2
17:54 92.0 °F /  33.3 °C 77.0 °F /  25 °C 30.0in /  1015.8hPa SE 12mph /  19.3km/h 13mph /  20.9km/h 63% 0.000in /  0mm 67.00 W/m2
17:59 91.0 °F /  32.8 °C 77.0 °F /  25 °C 30.0in /  1015.8hPa SE 10mph /  16.1km/h 10mph /  16.1km/h 63% 0.000in /  0mm 56.00 W/m2
18:04 91.0 °F /  32.8 °C 77.0 °F /  25 °C 30.0in /  1015.8hPa SSE 13mph /  20.9km/h 13mph /  20.9km/h 63% 0.000in /  0mm 49.00 W/m2
18:09 90.0 °F /  32.2 °C 77.0 °F /  25 °C 30.0in /  1015.8hPa SE 12mph /  19.3km/h 12mph /  19.3km/h 65% 0.000in /  0mm 47.00 W/m2
18:14 90.0 °F /  32.2 °C 77.0 °F /  25 °C 30.0in /  1015.8hPa SE 11mph /  17.7km/h 13mph /  20.9km/h 65% 0.000in /  0mm 46.00 W/m2
18:19 89.0 °F /  31.7 °C 77.0 °F /  25 °C 30.0in /  1015.8hPa SSE 13mph /  20.9km/h 13mph /  20.9km/h 66% 0.000in /  0mm 44.00 W/m2
18:24 89.0 °F /  31.7 °C 76.0 °F /  24.4 °C 30.0in /  1015.8hPa SE 12mph /  19.3km/h 12mph /  19.3km/h 66% 0.000in /  0mm 46.00 W/m2
18:29 89.0 °F /  31.7 °C 76.0 °F /  24.4 °C 30.0in /  1015.8hPa SE 10mph /  16.1km/h 11mph /  17.7km/h 66% 0.000in /  0mm 47.00 W/m2
18:34 89.0 °F /  31.7 °C 76.0 °F /  24.4 °C 30.0in /  1015.8hPa SSE 9mph /  14.5km/h 10mph /  16.1km/h 66% 0.000in /  0mm 47.00 W/m2
18:39 88.0 °F /  31.1 °C 76.0 °F /  24.4 °C 30.0in /  1015.8hPa SSE 6mph /  9.7km/h 8mph /  12.9km/h 66% 0.000in /  0mm 47.00 W/m2
18:44 88.0 °F /  31.1 °C 76.0 °F /  24.4 °C 30.0in /  1015.8hPa SE 11mph /  17.7km/h 11mph /  17.7km/h 66% 0.000in /  0mm 47.00 W/m2
18:49 88.0 °F /  31.1 °C 76.0 °F /  24.4 °C 30.0in /  1015.8hPa SSE 7mph /  11.3km/h 8mph /  12.9km/h 66% 0.000in /  0mm 46.00 W/m2
18:54 88.0 °F /  31.1 °C 76.0 °F /  24.4 °C 30.0in /  1015.8hPa SE 10mph /  16.1km/h 10mph /  16.1km/h 66% 0.000in /  0mm 40.00 W/m2
18:59 88.0 °F /  31.1 °C 75.0 °F /  23.9 °C 30.0in /  1015.8hPa SE 9mph /  14.5km/h 10mph /  16.1km/h 66% 0.000in /  0mm 35.00 W/m2
19:04 88.0 °F /  31.1 °C 75.0 °F /  23.9 °C 30.0in /  1015.8hPa SE 10mph /  16.1km/h 10mph /  16.1km/h 66% 0.000in /  0mm 30.00 W/m2
19:09 88.0 °F /  31.1 °C 75.0 °F /  23.9 °C 30.0in /  1015.8hPa SE 6mph /  9.7km/h 7mph /  11.3km/h 66% 0.000in /  0mm 25.00 W/m2
19:14 88.0 °F /  31.1 °C 75.0 °F /  23.9 °C 30.0in /  1015.8hPa SE 6mph /  9.7km/h 6mph /  9.7km/h 66% 0.000in /  0mm 23.00 W/m2
19:19 88.0 °F /  31.1 °C 75.0 °F /  23.9 °C 30.0in /  1015.8hPa SE 8mph /  12.9km/h 9mph /  14.5km/h 66% 0.000in /  0mm 19.00 W/m2
19:24 88.0 °F /  31.1 °C 76.0 °F /  24.4 °C 30.0in /  1015.8hPa SE 8mph /  12.9km/h 9mph /  14.5km/h 67% 0.000in /  0mm 18.00 W/m2
19:29 88.0 °F /  31.1 °C 76.0 °F /  24.4 °C 30.0in /  1015.8hPa SE 7mph /  11.3km/h 8mph /  12.9km/h 67% 0.000in /  0mm 16.00 W/m2
19:34 88.0 °F /  31.1 °C 76.0 °F /  24.4 °C 30.0in /  1015.8hPa SE 8mph /  12.9km/h 8mph /  12.9km/h 67% 0.000in /  0mm 14.00 W/m2
19:39 88.0 °F /  31.1 °C 76.0 °F /  24.4 °C 30.0in /  1015.8hPa SSE 7mph /  11.3km/h 8mph /  12.9km/h 67% 0.000in /  0mm 12.00 W/m2
19:44 88.0 °F /  31.1 °C 76.0 °F /  24.4 °C 30.0in /  1015.8hPa SE 8mph /  12.9km/h 9mph /  14.5km/h 67% 0.000in /  0mm 12.00 W/m2
19:49 88.0 °F /  31.1 °C 76.0 °F /  24.4 °C 30.0in /  1015.8hPa SE 8mph /  12.9km/h 8mph /  12.9km/h 67% 0.000in /  0mm 11.00 W/m2
19:54 88.0 °F /  31.1 °C 76.0 °F /  24.4 °C 30.0in /  1015.8hPa SE 7mph /  11.3km/h 8mph /  12.9km/h 67% 0.000in /  0mm 9.00 W/m2
19:59 88.0 °F /  31.1 °C 76.0 °F /  24.4 °C 30.0in /  1015.8hPa SE 8mph /  12.9km/h 8mph /  12.9km/h 67% 0.000in /  0mm 12.00 W/m2
20:04 88.0 °F /  31.1 °C 76.0 °F /  24.4 °C 30.0in /  1015.8hPa SE 8mph /  12.9km/h 8mph /  12.9km/h 67% 0.000in /  0mm 16.00 W/m2
20:09 88.0 °F /  31.1 °C 76.0 °F /  24.4 °C 30.0in /  1015.8hPa SSE 8mph /  12.9km/h 10mph /  16.1km/h 67% 0.000in /  0mm 16.00 W/m2
20:14 88.0 °F /  31.1 °C 76.0 °F /  24.4 °C 30.0in /  1015.8hPa SSE 6mph /  9.7km/h 10mph /  16.1km/h 67% 0.000in /  0mm 12.00 W/m2
20:19 88.0 °F /  31.1 °C 76.0 °F /  24.4 °C 30.0in /  1015.8hPa SSE 7mph /  11.3km/h 8mph /  12.9km/h 67% 0.000in /  0mm 9.00 W/m2
20:24 88.0 °F /  31.1 °C 75.0 °F /  23.9 °C 30.0in /  1015.8hPa SSE 10mph /  16.1km/h 12mph /  19.3km/h 66% 0.000in /  0mm 5.00 W/m2
20:29 88.0 °F /  31.1 °C 76.0 °F /  24.4 °C 30.0in /  1015.8hPa SSE 10mph /  16.1km/h 12mph /  19.3km/h 67% 0.000in /  0mm 0.00 W/m2
20:34 88.0 °F /  31.1 °C 76.0 °F /  24.4 °C 30.0in /  1015.8hPa SSE 14mph /  22.5km/h 14mph /  22.5km/h 67% 0.000in /  0mm 0.00 W/m2
20:39 88.0 °F /  31.1 °C 76.0 °F /  24.4 °C 30.0in /  1015.8hPa SE 9mph /  14.5km/h 14mph /  22.5km/h 67% 0.000in /  0mm 0.00 W/m2
20:44 88.0 °F /  31.1 °C 76.0 °F /  24.4 °C 30.0in /  1015.8hPa SSE 10mph /  16.1km/h 11mph /  17.7km/h 67% 0.000in /  0mm 0.00 W/m2
20:49 88.0 °F /  31.1 °C 76.0 °F /  24.4 °C 30.0in /  1015.8hPa SE 11mph /  17.7km/h 11mph /  17.7km/h 67% 0.000in /  0mm 0.00 W/m2
20:54 88.0 °F /  31.1 °C 76.0 °F /  24.4 °C 30.0in /  1015.8hPa SSE 9mph /  14.5km/h 9mph /  14.5km/h 68% 0.000in /  0mm 0.00 W/m2
20:59 88.0 °F /  31.1 °C 76.0 °F /  24.4 °C 30.0in /  1015.8hPa SSE 8mph /  12.9km/h 9mph /  14.5km/h 68% 0.000in /  0mm 0.00 W/m2
21:04 88.0 °F /  31.1 °C 76.0 °F /  24.4 °C 30.0in /  1015.8hPa SSE 11mph /  17.7km/h 11mph /  17.7km/h 68% 0.000in /  0mm 0.00 W/m2
21:09 87.0 °F /  30.6 °C 76.0 °F /  24.4 °C 30.0in /  1015.8hPa SSE 10mph /  16.1km/h 11mph /  17.7km/h 68% 0.000in /  0mm 0.00 W/m2
21:14 87.0 °F /  30.6 °C 76.0 °F /  24.4 °C 30.0in /  1015.8hPa SSE 7mph /  11.3km/h 9mph /  14.5km/h 69% 0.000in /  0mm 0.00 W/m2
21:19 87.0 °F /  30.6 °C 76.0 °F /  24.4 °C 30.0in /  1015.8hPa SSE 9mph /  14.5km/h 9mph /  14.5km/h 69% 0.000in /  0mm 0.00 W/m2
21:24 87.0 °F /  30.6 °C 76.0 °F /  24.4 °C 30.0in /  1015.8hPa SSE 10mph /  16.1km/h 10mph /  16.1km/h 69% 0.000in /  0mm 0.00 W/m2
21:29 87.0 °F /  30.6 °C 76.0 °F /  24.4 °C 30.0in /  1015.8hPa SSE 10mph /  16.1km/h 10mph /  16.1km/h 69% 0.000in /  0mm 0.00 W/m2
21:34 87.0 °F /  30.6 °C 75.0 °F /  23.9 °C 30.0in /  1015.8hPa SSE 6mph /  9.7km/h 7mph /  11.3km/h 69% 0.000in /  0mm 0.00 W/m2
21:39 87.0 °F /  30.6 °C 75.0 °F /  23.9 °C 30.0in /  1015.8hPa SSE 8mph /  12.9km/h 8mph /  12.9km/h 69% 0.000in /  0mm 0.00 W/m2
21:44 87.0 °F /  30.6 °C 75.0 °F /  23.9 °C 30.0in /  1015.8hPa SSE 8mph /  12.9km/h 10mph /  16.1km/h 69% 0.000in /  0mm 0.00 W/m2
21:49 86.0 °F /  30 °C 75.0 °F /  23.9 °C 30.0in /  1015.8hPa SSE 7mph /  11.3km/h 10mph /  16.1km/h 70% 0.000in /  0mm 0.00 W/m2
21:54 86.0 °F /  30 °C 75.0 °F /  23.9 °C 30.0in /  1015.8hPa SSE 6mph /  9.7km/h 8mph /  12.9km/h 70% 0.000in /  0mm 0.00 W/m2
21:59 86.0 °F /  30 °C 75.0 °F /  23.9 °C 30.0in /  1015.8hPa SSE 7mph /  11.3km/h 8mph /  12.9km/h 70% 0.000in /  0mm 0.00 W/m2
22:04 86.0 °F /  30 °C 75.0 °F /  23.9 °C 30.0in /  1015.8hPa SSE 8mph /  12.9km/h 8mph /  12.9km/h 70% 0.000in /  0mm 0.00 W/m2
22:09 86.0 °F /  30 °C 75.0 °F /  23.9 °C 30.0in /  1015.8hPa SSE 8mph /  12.9km/h 8mph /  12.9km/h 70% 0.000in /  0mm 0.00 W/m2
22:14 86.0 °F /  30 °C 75.0 °F /  23.9 °C 30.0in /  1015.8hPa SSE 8mph /  12.9km/h 8mph /  12.9km/h 71% 0.000in /  0mm 0.00 W/m2
22:19 86.0 °F /  30 °C 75.0 °F /  23.9 °C 30.0in /  1015.8hPa SSE 10mph /  16.1km/h 10mph /  16.1km/h 71% 0.000in /  0mm 0.00 W/m2
22:24 86.0 °F /  30 °C 75.0 °F /  23.9 °C 30.0in /  1015.8hPa SSE 11mph /  17.7km/h 11mph /  17.7km/h 71% 0.000in /  0mm 0.00 W/m2
22:29 86.0 °F /  30 °C 75.0 °F /  23.9 °C 30.0in /  1015.8hPa SSE 5mph /  8km/h 11mph /  17.7km/h 71% 0.000in /  0mm 0.00 W/m2
22:34 86.0 °F /  30 °C 75.0 °F /  23.9 °C 30.0in /  1015.8hPa SSE 8mph /  12.9km/h 10mph /  16.1km/h 71% 0.000in /  0mm 0.00 W/m2
22:39 86.0 °F /  30 °C 75.0 °F /  23.9 °C 30.0in /  1015.8hPa SSE 7mph /  11.3km/h 10mph /  16.1km/h 71% 0.000in /  0mm 0.00 W/m2
22:44 85.0 °F /  29.4 °C 75.0 °F /  23.9 °C 30.0in /  1015.8hPa SSE 6mph /  9.7km/h 9mph /  14.5km/h 71% 0.000in /  0mm 0.00 W/m2
22:49 85.0 °F /  29.4 °C 75.0 °F /  23.9 °C 30.0in /  1015.8hPa SSE 6mph /  9.7km/h 8mph /  12.9km/h 71% 0.000in /  0mm 0.00 W/m2
22:54 85.0 °F /  29.4 °C 75.0 °F /  23.9 °C 30.0in /  1015.8hPa SSE 7mph /  11.3km/h 8mph /  12.9km/h 72% 0.000in /  0mm 0.00 W/m2
22:59 85.0 °F /  29.4 °C 75.0 °F /  23.9 °C 30.0in /  1015.8hPa SSE 6mph /  9.7km/h 8mph /  12.9km/h 72% 0.000in /  0mm 0.00 W/m2
23:04 85.0 °F /  29.4 °C 75.0 °F /  23.9 °C 30.0in /  1015.8hPa SSE 4mph /  6.4km/h 4mph /  6.4km/h 72% 0.000in /  0mm 0.00 W/m2
23:09 85.0 °F /  29.4 °C 75.0 °F /  23.9 °C 30.0in /  1015.8hPa SSE 4mph /  6.4km/h 5mph /  8km/h 72% 0.000in /  0mm 0.00 W/m2
23:14 85.0 °F /  29.4 °C 75.0 °F /  23.9 °C 30.0in /  1015.8hPa South 6mph /  9.7km/h 6mph /  9.7km/h 72% 0.000in /  0mm 0.00 W/m2
23:19 85.0 °F /  29.4 °C 75.0 °F /  23.9 °C 30.0in /  1015.8hPa SSE 7mph /  11.3km/h 9mph /  14.5km/h 73% 0.000in /  0mm 0.00 W/m2
23:24 85.0 °F /  29.4 °C 75.0 °F /  23.9 °C 30.0in /  1015.8hPa South 5mph /  8km/h 7mph /  11.3km/h 73% 0.000in /  0mm 0.00 W/m2
23:29 85.0 °F /  29.4 °C 75.0 °F /  23.9 °C 30.0in /  1015.8hPa South 6mph /  9.7km/h 8mph /  12.9km/h 73% 0.000in /  0mm 0.00 W/m2
23:34 84.0 °F /  28.9 °C 75.0 °F /  23.9 °C 30.0in /  1015.8hPa South 7mph /  11.3km/h 7mph /  11.3km/h 73% 0.000in /  0mm 0.00 W/m2
23:39 84.0 °F /  28.9 °C 75.0 °F /  23.9 °C 30.0in /  1015.8hPa SSE 7mph /  11.3km/h 7mph /  11.3km/h 74% 0.000in /  0mm 0.00 W/m2
23:44 84.0 °F /  28.9 °C 75.0 °F /  23.9 °C 30.0in /  1015.8hPa SSE 6mph /  9.7km/h 7mph /  11.3km/h 74% 0.000in /  0mm 0.00 W/m2
23:49 84.0 °F /  28.9 °C 75.0 °F /  23.9 °C 30.0in /  1015.8hPa SSE 7mph /  11.3km/h 7mph /  11.3km/h 74% 0.000in /  0mm 0.00 W/m2
23:54 84.0 °F /  28.9 °C 75.0 °F /  23.9 °C 30.0in /  1015.8hPa South 6mph /  9.7km/h 9mph /  14.5km/h 74% 0.000in /  0mm 0.00 W/m2
23:59 84.0 °F /  28.9 °C 75.0 °F /  23.9 °C 30.0in /  1015.8hPa SSE 7mph /  11.3km/h 8mph /  12.9km/h 75% 0.000in /  0mm 0.00 W/m2
Villages of Bridgestone, Spring, TX USA
Compliments of Weather Underground - 4 mb